Location: ?????
(30.2541°N, 31.0910°E)
Time: 13:53:33
(UTC+00:00)

ARIANE 5 R/B - Visible Passes

Search period start: 21 March 2023 00:00
Search period end: 31 March 2023 00:00
Orbit: 748 x 794 km, 98.8° (Epoch: 21 March)

Date Brightness Start Highest point End Pass type
(mag) Time Alt. Az. Time Alt. Az. Time Alt. Az.
21 Mar 4.9 00:59:45 10° NE 01:03:10 18° E 01:04:31 16° ESE visible
21 Mar 2.9 02:37:29 10° N 02:42:17 41° WNW 02:44:51 24° SW visible
22 Mar 2.5 02:02:13 10° NNE 02:07:24 85° ESE 02:09:36 36° S visible
23 Mar 3.9 01:27:37 10° NNE 01:32:21 36° E 01:34:21 26° SE visible
23 Mar 3.8 03:07:19 10° NNW 03:11:07 21° WNW 03:14:41 11° WSW visible
24 Mar 5.1 00:54:13 10° ENE 00:57:09 15° E 00:59:05 13° ESE visible
24 Mar 2.8 02:31:24 10° N 02:36:21 48° WNW 02:39:26 22° SW visible
25 Mar 2.7 01:56:15 10° NNE 02:01:25 73° ESE 02:04:10 29° S visible
26 Mar 4.2 01:21:48 10° NE 01:26:21 31° E 01:28:54 20° SE visible
26 Mar 3.6 03:01:06 10° NNW 03:05:12 24° WNW 03:09:15 10° WSW visible
27 Mar 5.3 00:48:52 10° ENE 00:51:08 13° E 00:53:23 10° ESE visible
27 Mar 2.6 02:25:21 10° N 02:30:24 56° WNW 02:33:58 19° SW visible
28 Mar 2.9 01:50:18 10° NNE 01:55:27 63° ESE 01:58:42 23° S visible
29 Mar 4.4 01:16:01 10° NE 01:20:21 26° E 01:23:25 16° SE visible
29 Mar 3.5 02:54:54 10° NNW 02:59:17 28° WNW 03:03:40 10° SW visible
30 Mar 5.4 00:43:59 10° E 00:45:06 11° E 00:46:13 10° ESE visible
30 Mar 2.5 02:19:19 10° N 02:24:27 65° WNW 02:28:28 17° SSW visible
